Simultaneous Nadir Overpasses (SNOs) Predictions

Prediction of SNOs between FY3D and TERRA Satellite Orbit:

Table of predicted SNOs for the next 14.0 days since TLE Epoch: 10/17/2020
Index Date (FY3D) Time (FY3D) Lat,Lon (FY3D) SZA (FY3D ) Date (TERRA) Time (TERRA) Lat,Lon (TERRA) SZA (TERRA ) Distance(km) Time Diff (sec)
1 10/19/2020 06:37:45 69.31, 79.66 79.39 10/19/2020 06:38:56 69.22, 80.05 79.32 17.66 71
2 10/19/2020 07:28:22 -68.98,-112.56 100.92 10/19/2020 07:28:28 -69.00,-112.60 100.90 3.19 6
3 10/19/2020 08:19:06 68.88, 54.89 79.00 10/19/2020 08:17:55 68.89, 54.90 79.00 1.84 71
4 10/21/2020 22:54:11 69.51,-164.71 80.55 10/21/2020 22:55:21 69.41,-163.83 80.46 36.24 70
5 10/21/2020 23:44:45 -69.02, 3.30 99.93 10/21/2020 23:44:56 -69.03, 3.30 99.92 0.98 11
6 10/22/2020 00:35:29 68.92, 170.75 80.00 10/22/2020 00:34:23 68.91, 170.80 79.98 2.58 66
7 10/24/2020 15:10:36 69.72, -49.10 81.68 10/24/2020 15:11:45 69.59, -47.71 81.59 55.51 69
8 10/24/2020 16:01:07 -69.06, 119.17 98.95 10/24/2020 16:01:23 -69.04, 119.21 98.97 2.22 16
9 10/24/2020 16:51:50 68.92, -73.33 80.92 10/24/2020 16:50:50 68.92, -73.30 80.93 1.56 60
10 10/27/2020 07:27:02 69.92, 66.51 82.80 10/27/2020 07:28:09 69.82, 68.49 82.74 76.49 67
11 10/27/2020 08:17:29 -69.05,-124.90 98.05 10/27/2020 08:17:51 -69.05,-124.90 98.04 0.94 22
12 10/27/2020 09:08:12 68.91, 42.60 81.83 10/27/2020 09:07:18 68.93, 42.59 81.85 2.46 54
13 10/29/2020 23:43:28 70.13,-177.89 83.90 10/29/2020 23:44:33 70.04,-175.32 83.86 97.89 65
14 10/30/2020 00:33:51 -69.04, -8.97 97.17 10/30/2020 00:34:19 -69.06, -9.01 97.15 2.98 28
15 10/30/2020 01:24:35 68.96, 158.45 82.77 10/30/2020 01:23:46 68.94, 158.48 82.74 3.21 49
